星链-4320 (STARLINK-4320 )

导读 | 星芒AI

STARLINK-4320 是 SpaceX Starlink 卫星互联网项目中的一颗低轨卫星,属于“星链”计划的第四批部署任务。该卫星运行在约 550 公里的近地轨道,旨在为全球用户提供高速、低延迟的互联网服务。作为星链星座的一部分,STARLINK-4320 采用先进推进系统和激光通信技术,支持星座间高速数据传输,提升网络稳定性和覆盖能力。该卫星的发射和运行有助于扩展 Starlink 在全球范围内的服务,特别是在偏远和网络基础设施薄弱地区。

基本信息
目录编号:
53059
目录名称:
STARLINK-4320
国际标识:
2022-077S
轨道中心:
EARTH
卫星名称:
星链-4320
卫星全名:
星链-4320 (STARLINK-4320 )
卫星状态:
在轨 (已飞行1259 天)
发射日期:
2022-07-11 UTC
国别 :
美国 (US)
星等 :
--
轨道信息
数据来源 国际轨道数据
星历时间: 2025-12-21T02:22:22+0800
12小时前
查看轨道信息
半长轴: 6941.149km
偏心率: 0.0002478
轨道倾角: 97.602°
近地点辐角 12.660°
升交点赤经 172.953°
平近点角 347.469°
近地点: 561.291km
远地点: 564.733km
周期: 95.919分钟
每日圈数: 15.012596
详细信息
固有亮度:
5
最大亮度:
2.5
卫星平台:
Starlink v1.5
覆盖范围:
全球
运营商:
太空探索技术公司
运营商所在国:
美国
制造商(研发单位):
太空探索技术公司
制造商所在国:
美国
使用方式:
暂无
卫星简介
星链(Starlink)计划是由太空探索技术公司(SpaceX)提出的一个巨型低轨卫星互联网星座项目,计划在2019年至2024年间在太空搭建由约1.2万颗卫星组成的“星链”网络,其中1584颗将部署在地球上空550千米处的近地轨道,并从2020年开始工作。该卫星仍在工作。
2D轨道图
3D轨道图
轨道高度分析图
轨道倾角分析图
轨道综合分析图
查看轨道综合分析图